Michigan City, IN

11:56 PM CST on February 09, 2016 (GMT -0600)
Michigan City Municipal

Weather History for KMGC - January, 2014

Change the Weather History Date:

Saturday, January 25, 2014

  Actual Average (KVPZ) Record (KVPZ)
Temperature  
Mean Temperature 22 °F 24 °F  
Max Temperature 32 °F 31 °F 50 °F (2002)
Min Temperature 12 °F 16 °F -8 °F (2008)
Degree Days  
Heating Degree Days 43 41  
Month to date heating degree days 1040  
Since 1 July heating degree days 3442  
Cooling Degree Days 0 0  
Month to date cooling degree days 0  
Year to date cooling degree days 0  
Moisture  
Dew Point 9 °F    
Average Humidity 61    
Maximum Humidity 93    
Minimum Humidity 37    
Precipitation  
Precipitation 0.00 in 0.06 in 0.24 in (2005)
Month to date precipitation 1.40  
Year to date precipitation 1.40  
Sea Level Pressure  
Sea Level Pressure 29.60 in    
Wind  
Wind Speed 15 mph (WNW)    
Max Wind Speed 22 mph    
Max Gust Speed 32 mph    
Visibility 8 miles    
Events Snow    
T = Trace of Precipitation, MM = Missing Value Source: NWS Daily Summary

Daily Weather History Graph

Daily Weather History Graph

Search for Another Location

Airport or City:

Trip Planner

Search our weather history database for the weather conditions in past years. The results will help you decide how hot, cold, wet, or windy it might be!

Date:

Astronomy

Jan. 25, 2014 Rise Set
Actual Time 7:05 AM CST 4:54 PM CST
Civil Twilight 6:35 AM CST 5:23 PM CST
Nautical Twilight 6:02 AM CST 5:57 PM CST
Astronomical Twilight 5:29 AM CST 6:30 PM CST
Moon 1:36 AM CST (1/25) 11:54 AM CST (1/25)
Length of Visible Light 10h 48m
Length of Day
9h 48m
Waning Crescent, 34% of the Moon is Illuminated
Jan 25
Waning Crescent
Jan 30
New
Feb 6
First Quarter
Feb 14
Full
Feb 22
Last Quarter

Hourly Weather History & Observations

Time (CST) Temp. Windchill Dew Point Humidity Pressure Visibility Wind Dir Wind Speed Gust Speed Precip Events Conditions
12:15 AM 24.8 °F 10.3 °F 19.4 °F 80% 29.48 in 2.5 mi SW 20.7 mph 31.1 mph N/A Snow Light Snow
12:35 AM 24.8 °F 10.3 °F 21.2 °F 86% 29.46 in 2.5 mi SSW 20.7 mph 27.6 mph N/A Snow Light Snow
12:55 AM 26.6 °F 13.4 °F 21.2 °F 80% 29.46 in 3.0 mi SW 18.4 mph 24.2 mph N/A Snow Light Snow
1:15 AM 26.6 °F 13.8 °F 21.2 °F 80% 29.45 in 2.0 mi SW 17.3 mph 26.5 mph N/A Snow Light Snow
1:35 AM 26.6 °F 13.4 °F 23.0 °F 86% 29.44 in 4.0 mi SW 18.4 mph 23.0 mph N/A Snow Light Snow
1:55 AM 28.4 °F 18.0 °F 23.0 °F 80% 29.43 in 3.0 mi SW 12.7 mph 25.3 mph N/A Snow Light Snow
2:15 AM 28.4 °F 17.5 °F 24.8 °F 86% 29.42 in 3.0 mi SW 13.8 mph 19.6 mph N/A Snow Light Snow
2:35 AM 28.4 °F 17.5 °F 26.6 °F 93% 29.41 in 5.0 mi SW 13.8 mph 19.6 mph N/A Snow Light Snow
2:55 AM 30.2 °F 19.3 °F 26.6 °F 86% 29.41 in 3.0 mi WSW 15.0 mph 24.2 mph N/A Snow Light Snow
3:15 AM 30.2 °F 19.3 °F 26.6 °F 86% 29.40 in 3.0 mi SW 15.0 mph 21.9 mph N/A Snow Light Snow
3:35 AM 30.2 °F 20.8 °F 26.6 °F 86% 29.39 in 5.0 mi WSW 11.5 mph 23.0 mph N/A Snow Light Snow
3:55 AM 30.2 °F 20.2 °F 26.6 °F 86% 29.39 in 4.0 mi WSW 12.7 mph 17.3 mph N/A Snow Light Snow
4:15 AM 30.2 °F 21.9 °F 28.4 °F 93% 29.39 in 3.0 mi WSW 9.2 mph 17.3 mph N/A   Overcast
4:35 AM 30.2 °F 20.8 °F 28.4 °F 93% 29.38 in 4.0 mi WSW 11.5 mph - N/A   Overcast
4:55 AM 32.0 °F 24.2 °F 30.2 °F 93% 29.39 in 2.5 mi West 9.2 mph 18.4 mph N/A Snow Light Snow
5:15 AM 32.0 °F 20.5 °F 30.2 °F 93% 29.39 in 4.0 mi WNW 18.4 mph 28.8 mph N/A Snow Light Snow
5:35 AM 30.2 °F 21.3 °F 26.6 °F 86% 29.40 in 10.0 mi WNW 10.4 mph 18.4 mph N/A   Overcast
5:55 AM 30.2 °F 20.2 °F 23.0 °F 75% 29.41 in 10.0 mi WNW 12.7 mph 18.4 mph N/A   Scattered Clouds
6:15 AM 30.2 °F 21.9 °F 21.2 °F 69% 29.42 in 10.0 mi NW 9.2 mph - N/A   Scattered Clouds
6:35 AM 30.2 °F 22.6 °F 19.4 °F 64% 29.42 in 10.0 mi NW 8.1 mph - N/A   Overcast
6:55 AM 30.2 °F 21.3 °F 19.4 °F 64% 29.43 in 10.0 mi NW 10.4 mph 19.6 mph N/A   Overcast
7:15 AM 30.2 °F 19.3 °F 19.4 °F 64% 29.43 in 10.0 mi WNW 15.0 mph 21.9 mph N/A   Overcast
7:35 AM 28.4 °F 15.8 °F 10.4 °F 47% 29.45 in 5.0 mi NW 18.4 mph 32.2 mph N/A   Haze
7:55 AM 28.4 °F 15.8 °F 5.0 °F 37% 29.46 in 7.0 mi WNW 18.4 mph 31.1 mph N/A   Scattered Clouds
8:15 AM 28.4 °F 16.2 °F 5.0 °F 37% 29.47 in 5.0 mi NW 17.3 mph 29.9 mph N/A   Haze
8:35 AM 26.6 °F 15.2 °F 3.2 °F 37% 29.48 in 10.0 mi NW 13.8 mph 28.8 mph N/A   Overcast
8:55 AM 26.6 °F 15.7 °F 10.4 °F 51% 29.49 in 10.0 mi NNW 12.7 mph 21.9 mph N/A   Overcast
9:15 AM 24.8 °F 11.9 °F 10.4 °F 54% 29.51 in 10.0 mi NW 16.1 mph 26.5 mph N/A   Overcast
9:35 AM 23.0 °F 7.6 °F 10.4 °F 59% 29.52 in 7.0 mi NNW 21.9 mph 29.9 mph N/A   Overcast
9:55 AM 23.0 °F 9.2 °F 8.6 °F 54% 29.54 in 10.0 mi NW 17.3 mph 25.3 mph N/A   Overcast
10:15 AM 23.0 °F 8.3 °F 6.8 °F 50% 29.55 in 7.0 mi NW 19.6 mph 29.9 mph N/A   Overcast
10:35 AM 21.2 °F 6.4 °F 6.8 °F 54% 29.56 in 7.0 mi NW 18.4 mph 31.1 mph N/A   Overcast
10:55 AM 21.2 °F 5.2 °F 5.0 °F 50% 29.57 in 7.0 mi NNW 21.9 mph 29.9 mph N/A   Overcast
11:15 AM 21.2 °F 7.3 °F 5.0 °F 50% 29.58 in 7.0 mi NNW 16.1 mph 26.5 mph N/A   Overcast
11:35 AM 21.2 °F 7.8 °F 5.0 °F 50% 29.59 in 7.0 mi NW 15.0 mph 27.6 mph N/A   Overcast
11:55 AM 19.4 °F 6.6 °F 5.0 °F 54% 29.60 in 7.0 mi NW 12.7 mph 29.9 mph N/A   Overcast
12:15 PM 19.4 °F 4.1 °F 5.0 °F 54% 29.61 in 7.0 mi WNW 18.4 mph 28.8 mph N/A   Overcast
12:35 PM 19.4 °F 5.0 °F 3.2 °F 49% 29.62 in 10.0 mi NW 16.1 mph 28.8 mph N/A   Mostly Cloudy
12:55 PM 19.4 °F 4.5 °F 5.0 °F 54% 29.63 in 5.0 mi NW 17.3 mph 26.5 mph N/A   Haze
1:15 PM 19.4 °F 4.5 °F 3.2 °F 49% 29.64 in 10.0 mi NW 17.3 mph 24.2 mph N/A   Overcast
1:35 PM 17.6 °F 3.7 °F 3.2 °F 53% 29.65 in 10.0 mi WNW 13.8 mph 25.3 mph N/A   Overcast
1:55 PM 17.6 °F 3.2 °F 3.2 °F 53% 29.66 in 10.0 mi WNW 15.0 mph 25.3 mph N/A   Overcast
2:15 PM 17.6 °F 2.2 °F 3.2 °F 53% 29.67 in 10.0 mi WNW 17.3 mph 27.6 mph N/A   Overcast
2:35 PM 17.6 °F 2.2 °F -0.4 °F 45% 29.68 in 10.0 mi NW 17.3 mph 24.2 mph N/A   Mostly Cloudy
2:55 PM 17.6 °F 1.7 °F 1.4 °F 49% 29.69 in 10.0 mi WNW 18.4 mph 27.6 mph N/A   Mostly Cloudy
3:15 PM 17.6 °F 1.7 °F -0.4 °F 45% 29.70 in 10.0 mi WNW 18.4 mph 24.2 mph N/A   Mostly Cloudy
3:35 PM 17.6 °F 3.2 °F -0.4 °F 45% 29.72 in 10.0 mi NW 15.0 mph 26.5 mph N/A   Mostly Cloudy
3:55 PM 17.6 °F 2.7 °F 1.4 °F 49% 29.73 in 10.0 mi West 16.1 mph 23.0 mph N/A   Overcast
4:15 PM 15.8 °F 2.1 °F -0.4 °F 49% 29.74 in 10.0 mi WNW 12.7 mph 23.0 mph N/A   Mostly Cloudy
4:35 PM 15.8 °F 2.7 °F -4.0 °F 41% 29.75 in 10.0 mi NW 11.5 mph 26.5 mph N/A   Scattered Clouds
4:55 PM 15.8 °F 2.1 °F -0.4 °F 49% 29.76 in 10.0 mi WNW 12.7 mph 17.3 mph N/A   Scattered Clouds
5:15 PM 14.0 °F 1.2 °F -4.0 °F 45% 29.77 in 10.0 mi WNW 10.4 mph 20.7 mph N/A   Scattered Clouds
5:35 PM 14.0 °F -0.8 °F -4.0 °F 45% 29.78 in 10.0 mi WNW 13.8 mph 24.2 mph N/A   Scattered Clouds
5:55 PM 14.0 °F -1.4 °F -0.4 °F 53% 29.79 in 10.0 mi West 15.0 mph 24.2 mph N/A   Scattered Clouds
6:15 PM 14.0 °F -2.0 °F -2.2 °F 49% 29.80 in 10.0 mi West 16.1 mph 20.7 mph N/A   Scattered Clouds
6:35 PM 14.0 °F 1.2 °F -2.2 °F 49% 29.80 in 10.0 mi WNW 10.4 mph 17.3 mph N/A   Scattered Clouds
6:55 PM 14.0 °F 0.5 °F -0.4 °F 53% 29.81 in 10.0 mi West 11.5 mph 18.4 mph N/A   Mostly Cloudy
7:15 PM 14.0 °F 1.2 °F -0.4 °F 53% 29.82 in 10.0 mi West 10.4 mph 19.6 mph N/A   Mostly Cloudy
7:35 PM 14.0 °F 2.9 °F -0.4 °F 53% 29.82 in 10.0 mi WNW 8.1 mph 20.7 mph N/A   Overcast
7:55 PM 14.0 °F -2.0 °F -0.4 °F 53% 29.83 in 10.0 mi West 16.1 mph 20.7 mph N/A   Overcast
8:15 PM 14.0 °F -0.2 °F -0.4 °F 53% 29.84 in 10.0 mi West 12.7 mph 18.4 mph N/A   Overcast
9:15 PM 12.2 °F -2.5 °F -0.4 °F 57% 29.84 in 10.0 mi WNW 12.7 mph 16.1 mph N/A   Mostly Cloudy
9:35 PM 12.2 °F -0.2 °F -0.4 °F 57% 29.83 in 10.0 mi WNW 9.2 mph 17.3 mph N/A   Mostly Cloudy
9:55 PM 12.2 °F -1.0 °F -0.4 °F 57% 29.84 in 10.0 mi WNW 10.4 mph - N/A   Mostly Cloudy
10:15 PM 12.2 °F -1.0 °F -2.2 °F 53% 29.84 in 10.0 mi WNW 10.4 mph 16.1 mph N/A   Scattered Clouds
10:35 PM 12.2 °F -0.2 °F -0.4 °F 57% 29.83 in 10.0 mi WNW 9.2 mph - N/A   Mostly Cloudy
10:55 PM 12.2 °F 0.7 °F -0.4 °F 57% 29.82 in 10.0 mi WNW 8.1 mph - N/A   Scattered Clouds
11:15 PM 12.2 °F 4.3 °F -0.4 °F 57% 29.82 in 10.0 mi West 4.6 mph - N/A   Scattered Clouds
11:35 PM 12.2 °F 6.1 °F -0.4 °F 57% 29.81 in 10.0 mi West 3.5 mph - N/A   Clear
11:55 PM 12.2 °F 6.1 °F -0.4 °F 57% 29.81 in 10.0 mi West 3.5 mph - N/A   Clear